Back to catalog

STARLINK-34642

AliveCommunicationsVLEO
NORAD 64910·PAYLOAD·🇺🇸 United States

Launched Jul 26, 2025 from Cape Canaveral Space Force Station

Loading…

Next Passes (next 24 hours)

TLE

FreshSource: CelesTrak SupGP

Epoch: Sep 14, 2026, 14:07 UTC

1 64910C 25157G   26257.58868056  .00033104  00000+0  10648-2 0  2576
2 64910  53.1582 186.4917 0001297  83.4465 142.7435 15.31676926    14

Track STARLINK-34642 in real time with AllMySat

Download on the App Store